Northfield, Minnesota, United States (55057)
Lat: 44.46N, Lon: 93.16W
Wx Zone: MNZ077
Local Info
Past Weather Observations for Today

NOTE: This archive is for the closest National Weather Service station to Northfield. Information may differ from the station used for current weather conditions.

Click here for Long-term Archive

Time Weather Temperature Dewpoint Humidity Pressure Winds Precip Visibility
16:14
Clear
10°F / -12°C -4°F / -20°C 52% 30.24 in
(1024 mb)
NW 15 mph
(NW 24 kph)
- 10SM
15:54
Clear
12°F / -11°C -2°F / -19°C 52% 30.24 in
(1024 mb)
NW 19.6 mph
(NW 32 kph)
- 10SM
15:34
Partly Cloudy
12°F / -11°C -2°F / -19°C 52% 30.24 in
(1024 mb)
WNW 21.9 mph
(WNW 35 kph)
- 10SM
15:14
Partly Cloudy
12°F / -11°C 1°F / -17°C 62% 30.24 in
(1024 mb)
WNW 18.4 mph
(WNW 30 kph)
- 10SM
14:54
Mostly Cloudy
12°F / -11°C 1°F / -17°C 62% 30.24 in
(1024 mb)
NW 15 mph
(NW 24 kph)
- 7SM
14:34
Mostly Cloudy
Hazy
12°F / -11°C 1°F / -17°C 62% 30.21 in
(1023 mb)
NW 12.7 mph
(NW 20 kph)
- 5SM
14:14
Partly Cloudy
12°F / -11°C -2°F / -19°C 52% 30.21 in
(1023 mb)
NW 10.4 mph
(NW 17 kph)
- 10SM
13:54
Partly Cloudy
12°F / -11°C -2°F / -19°C 52% 30.21 in
(1023 mb)
NW 16.1 mph
(NW 26 kph)
- 10SM
13:34
Partly Cloudy
12°F / -11°C -2°F / -19°C 52% 30.21 in
(1023 mb)
NW 16.1 mph
(NW 26 kph)
- 10SM
13:14
Partly Cloudy
12°F / -11°C -2°F / -19°C 52% 30.24 in
(1024 mb)
WNW 18.4 mph
(WNW 30 kph)
- 10SM
12:54
Clear
12°F / -11°C -4°F / -20°C 48% 30.24 in
(1024 mb)
NW 16.1 mph
(NW 26 kph)
- 10SM
12:34
Partly Cloudy
12°F / -11°C -2°F / -19°C 52% 30.24 in
(1024 mb)
W 16.1 mph
(W 26 kph)
- 10SM
12:14
Clear
12°F / -11°C -2°F / -19°C 52% 30.24 in
(1024 mb)
W 16.1 mph
(W 26 kph)
- 10SM
11:54
Clear
10°F / -12°C -2°F / -19°C 56% 30.24 in
(1024 mb)
WNW 17.3 mph
(WNW 28 kph)
- 10SM
11:34
Clear
10°F / -12°C -4°F / -20°C 52% 30.24 in
(1024 mb)
NW 11.5 mph
(NW 19 kph)
- 10SM
11:14
Partly Cloudy
10°F / -12°C -2°F / -19°C 56% 30.24 in
(1024 mb)
NW 13.8 mph
(NW 22 kph)
- 10SM
10:54
Partly Cloudy
9°F / -13°C -4°F / -20°C 56% 30.24 in
(1024 mb)
WNW 13.8 mph
(WNW 22 kph)
- 10SM
10:34
Partly Cloudy
9°F / -13°C -6°F / -21°C 51% 30.24 in
(1024 mb)
W 13.8 mph
(W 22 kph)
- 10SM
10:14
Clear
9°F / -13°C -4°F / -20°C 56% 30.21 in
(1023 mb)
W 12.7 mph
(W 20 kph)
- 10SM
09:54
Clear
7°F / -14°C -4°F / -20°C 61% 30.21 in
(1023 mb)
WNW 13.8 mph
(WNW 22 kph)
- 10SM
09:34
Clear
7°F / -14°C -6°F / -21°C 56% 30.21 in
(1023 mb)
NW 12.7 mph
(NW 20 kph)
- 10SM
09:14
Clear
5°F / -15°C -4°F / -20°C 66% 30.21 in
(1023 mb)
NW 10.4 mph
(NW 17 kph)
- 10SM
08:54
Clear
3°F / -16°C -6°F / -21°C 66% 30.21 in
(1023 mb)
W 9.2 mph
(W 15 kph)
- 10SM
08:34
Clear
3°F / -16°C -6°F / -21°C 66% 30.21 in
(1023 mb)
W 10.4 mph
(W 17 kph)
- 10SM
08:14
Clear
1°F / -17°C -6°F / -21°C 71% 30.18 in
(1022 mb)
W 8.1 mph
(W 13 kph)
- 10SM
07:54
Clear
1°F / -17°C -8°F / -22°C 65% 30.18 in
(1022 mb)
SSW 8.1 mph
(SSW 13 kph)
- 10SM
07:34
Clear
°F / -18°C -8°F / -22°C 71% 30.18 in
(1022 mb)
SSW 4.6 mph
(SSW 7 kph)
- 10SM
07:14
Clear
-2°F / -19°C -9°F / -23°C 71% 30.15 in
(1021 mb)
SSW 3.5 mph
(SSW 6 kph)
- 10SM
06:54
Clear
°F / -18°C -8°F / -22°C 71% 30.15 in
(1021 mb)
SSW 4.6 mph
(SSW 7 kph)
- 10SM
06:34
Clear
°F / -18°C -8°F / -22°C 71% 30.15 in
(1021 mb)
W 6.9 mph
(W 11 kph)
- 10SM
06:14
Clear
°F / -18°C -8°F / -22°C 71% 30.12 in
(1020 mb)
W 6.9 mph
(W 11 kph)
- 10SM
05:54
Clear
°F / -18°C -8°F / -22°C 71% 30.12 in
(1020 mb)
W 8.1 mph
(W 13 kph)
- 10SM
05:34
Clear
°F / -18°C -8°F / -22°C 71% 30.12 in
(1020 mb)
W 6.9 mph
(W 11 kph)
- 10SM
05:13
Clear
1°F / -17°C -8°F / -22°C 65% 30.12 in
(1020 mb)
W 8.1 mph
(W 13 kph)
- 10SM
04:54
Clear
1°F / -17°C -8°F / -22°C 65% 30.12 in
(1020 mb)
W 9.2 mph
(W 15 kph)
- 10SM
04:34
Clear
1°F / -17°C -6°F / -21°C 71% 30.09 in
(1019 mb)
W 9.2 mph
(W 15 kph)
- 10SM
04:14
Clear
1°F / -17°C -6°F / -21°C 71% 30.09 in
(1019 mb)
W 8.1 mph
(W 13 kph)
- 10SM
03:54
Clear
3°F / -16°C -6°F / -21°C 66% 30.09 in
(1019 mb)
W 9.2 mph
(W 15 kph)
- 10SM
03:34
Clear
3°F / -16°C -6°F / -21°C 66% 30.09 in
(1019 mb)
W 9.2 mph
(W 15 kph)
- 10SM
03:14
Clear
3°F / -16°C -6°F / -21°C 66% 30.09 in
(1019 mb)
WNW 10.4 mph
(WNW 17 kph)
- 10SM
02:54
Clear
3°F / -16°C -6°F / -21°C 66% 30.09 in
(1019 mb)
W 10.4 mph
(W 17 kph)
- 10SM
02:34
Clear
3°F / -16°C -6°F / -21°C 66% 30.09 in
(1019 mb)
W 10.4 mph
(W 17 kph)
- 10SM
02:14
Clear
3°F / -16°C -6°F / -21°C 66% 30.06 in
(1018 mb)
WNW 11.5 mph
(WNW 19 kph)
- 10SM
01:54
Clear
5°F / -15°C -6°F / -21°C 60% 30.06 in
(1018 mb)
WNW 11.5 mph
(WNW 19 kph)
- 10SM
01:34
Clear
7°F / -14°C -4°F / -20°C 61% 30.06 in
(1018 mb)
NW 16.1 mph
(NW 26 kph)
- 10SM
01:14
Clear
7°F / -14°C -4°F / -20°C 61% 30.06 in
(1018 mb)
WNW 13.8 mph
(WNW 22 kph)
- 10SM
00:55
Clear
7°F / -14°C -2°F / -19°C 66% 30.04 in
(1017 mb)
W 11.5 mph
(W 19 kph)
- 10SM
00:34
Clear
7°F / -14°C -2°F / -19°C 66% 30.04 in
(1017 mb)
NW 15 mph
(NW 24 kph)
- 10SM
00:14
Clear
7°F / -14°C °F / -18°C 72% 30.04 in
(1017 mb)
WNW 10.4 mph
(WNW 17 kph)
- 10SM
Time Weather Temperature Dewpoint Humidity Pressure Winds Precip Visibility


Weather for websites

WeatherForYou.com, LLC is not responsible for any damages or problems caused by this service. Current weather conditions are obtained from the closest station including government and personal stations which may have varying degrees of accuracy. Weather forecasts are derived from the NOAA NDFD. Like all things, this site belongs to Jesus Christ... He just trusts me to maintain it. If you have any questions or comments email webmaster@weatherforyou.com

Copyright © 2015, WeatherForYou.com LLC. All rights reserved.